Air Quality Table

TIMESTAMP NO2 SO2 O3 PM10 PM2.5 CO TEMP HUM AIRPRES WS WD NO BENZENE
2023-02-03 21:00 47.51 µg/m3 1.6 µg/m3 13.27 µg/m3 22.65 µg/m3 10.51 µg/m3 0.66 mg/m3 10.51 °C 82.16 % 1,026.14 mbar 0.89 m/s 233.43 Deg 35.6 µg/m3 4.7 µg/m3
2023-02-03 20:00 57.09 µg/m3 1.72 µg/m3 12.33 µg/m3 25.05 µg/m3 11.57 µg/m3 0.57 mg/m3 10.91 °C 81.43 % 1,026.06 mbar 0.77 m/s 231.26 Deg 50.29 µg/m3 2.99 µg/m3
2023-02-03 19:00 61.97 µg/m3 1.43 µg/m3 12.6 µg/m3 31.46 µg/m3 13.25 µg/m3 0.52 mg/m3 12.25 °C 75.93 % 1,026.21 mbar 0.56 m/s 189.35 Deg 53.29 µg/m3 3.46 µg/m3
2023-02-03 18:00 59.93 µg/m3 1.53 µg/m3 18.44 µg/m3 32.52 µg/m3 19.08 µg/m3 0.45 mg/m3 13.59 °C 70.6 % 1,026.01 mbar 0.76 m/s 141.78 Deg 38.86 µg/m3 4.09 µg/m3
2023-02-03 17:00 41.74 µg/m3 1.34 µg/m3 39.85 µg/m3 26.96 µg/m3 8.98 µg/m3 0.36 mg/m3 15.12 °C 63.43 % 1,025.66 mbar 1.06 m/s 155.39 Deg 18.33 µg/m3 1.44 µg/m3
2023-02-03 16:00 29.03 µg/m3 1.28 µg/m3 49.07 µg/m3 27.9 µg/m3 8.29 µg/m3 0.35 mg/m3 15.47 °C 60.86 % 1,025.37 mbar 1.56 m/s 126.78 Deg 13.23 µg/m3 2.03 µg/m3
2023-02-03 15:00 19.94 µg/m3 0.92 µg/m3 60.88 µg/m3 20.55 µg/m3 7.95 µg/m3 0.36 mg/m3 15.17 °C 64.46 % 1,025.05 mbar 2.53 m/s 60.94 Deg 9.15 µg/m3 1.47 µg/m3
2023-02-03 14:00 19.99 µg/m3 1.04 µg/m3 54.11 µg/m3 20.92 µg/m3 8.28 µg/m3 0.39 mg/m3 15.15 °C 67.11 % 1,025.20 mbar 2.52 m/s 64.96 Deg 8.29 µg/m3 2.05 µg/m3
2023-02-03 13:00 18.07 µg/m3 0.86 µg/m3 55.69 µg/m3 20.93 µg/m3 7.59 µg/m3 0.44 mg/m3 15.22 °C 67.52 % 1,025.68 mbar 2.4 m/s 62.31 Deg 8.3 µg/m3 1.18 µg/m3
2023-02-03 12:00 22.93 µg/m3 1.01 µg/m3 49.57 µg/m3 22.46 µg/m3 7.54 µg/m3 0.53 mg/m3 14.99 °C 68.67 % 1,026.35 mbar 2.15 m/s 56.88 Deg 13.23 µg/m3 1.63 µg/m3
2023-02-03 11:00 32.31 µg/m3 1.59 µg/m3 37.52 µg/m3 34.14 µg/m3 9.94 µg/m3 0.65 mg/m3 14.65 °C 70.79 % 1,026.61 mbar 1.6 m/s 62.43 Deg 19.95 µg/m3 2.6 µg/m3
2023-02-03 10:00 51.73 µg/m3 2.29 µg/m3 8.34 µg/m3 58.17 µg/m3 15.47 µg/m3 0.75 mg/m3 13.73 °C 75.47 % 1,026.29 mbar 0.26 m/s 199.34 Deg 91.51 µg/m3 4.97 µg/m3
2023-02-03 09:00 46.62 µg/m3 2.72 µg/m3 1.56 µg/m3 77.32 µg/m3 18.1 µg/m3 0.76 mg/m3 11.66 °C 83.16 % 1,025.60 mbar 0.43 m/s 221.2 Deg 153.7 µg/m3 5.2 µg/m3
2023-02-03 08:00 46.03 µg/m3 2.26 µg/m3 1.31 µg/m3 52.83 µg/m3 13.5 µg/m3 0.65 mg/m3 10.05 °C 84.54 % 1,024.90 mbar 1.03 m/s 235.86 Deg 117.35 µg/m3 4.2 µg/m3
2023-02-03 07:00 46.32 µg/m3 2.14 µg/m3 1.38 µg/m3 41.92 µg/m3 12.39 µg/m3 0.51 mg/m3 9.35 °C 86.41 % 1,024.36 mbar 0.65 m/s 229.36 Deg 132.43 µg/m3 4.88 µg/m3
2023-02-03 06:00 38.64 µg/m3 1.37 µg/m3 9.18 µg/m3 17.48 µg/m3 6.16 µg/m3 0.34 mg/m3 10.5 °C 81.21 % 1,024.14 mbar 0.62 m/s 218.61 Deg 71.04 µg/m3 2.05 µg/m3
2023-02-03 05:00 20.84 µg/m3 0.55 µg/m3 24.62 µg/m3 11.97 µg/m3 4.74 µg/m3 0.27 mg/m3 10.24 °C 82.53 % 1,023.80 mbar 0.87 m/s 232.44 Deg 14.07 µg/m3 0.89 µg/m3
2023-02-03 04:00 12.51 µg/m3 0.67 µg/m3 44.84 µg/m3 9.36 µg/m3 4.26 µg/m3 0.27 mg/m3 11.69 °C 77.36 % 1,024.06 mbar 0.78 m/s 220.94 Deg 2.36 µg/m3 0.73 µg/m3
2023-02-03 03:00 23.28 µg/m3 0.48 µg/m3 42.97 µg/m3 8.36 µg/m3 4.01 µg/m3 0.21 mg/m3 12.37 °C 73.93 % 1,024.04 mbar 1.04 m/s 219.38 Deg 1.8 µg/m3 0.68 µg/m3
2023-02-03 02:00 8.72 µg/m3 0.48 µg/m3 46.33 µg/m3 9.43 µg/m3 4.24 µg/m3 0.31 mg/m3 12.66 °C 72.5 % 1,024.10 mbar 0.78 m/s 219.88 Deg 2.13 µg/m3 0.68 µg/m3
2023-02-03 01:00 8.62 µg/m3 0.54 µg/m3 46.62 µg/m3 9.44 µg/m3 4.75 µg/m3 0.35 mg/m3 12.38 °C 75.14 % 1,024.34 mbar 1.1 m/s 221.32 Deg 2.03 µg/m3 0.87 µg/m3
2023-02-03 00:00 19.25 µg/m3 0.87 µg/m3 34.4 µg/m3 12.09 µg/m3 5.55 µg/m3 0.39 mg/m3 12.01 °C 78.88 % 1,024.44 mbar 1.37 m/s 219.55 Deg 8.98 µg/m3 1.15 µg/m3
2023-02-02 23:00 17.08 µg/m3 0.58 µg/m3 38.04 µg/m3 11.58 µg/m3 5.29 µg/m3 0.39 mg/m3 11.79 °C 79.74 % 1,024.25 mbar 1.23 m/s 220.66 Deg 7.8 µg/m3 0.84 µg/m3
2023-02-02 22:00 19.24 µg/m3 0.61 µg/m3 38.68 µg/m3 12.08 µg/m3 5.52 µg/m3 0.41 mg/m3 11.99 °C 78.84 % 1,024.00 mbar 1.39 m/s 224.6 Deg 8.19 µg/m3 1.26 µg/m3
2023-02-02 21:00 33.93 µg/m3 0.69 µg/m3 24.85 µg/m3 16.84 µg/m3 6.61 µg/m3 0.41 mg/m3 12.35 °C 78.81 % 1,023.82 mbar 1.06 m/s 220.92 Deg 19.34 µg/m3 1.5 µg/m3
2023-02-02 20:00 29.08 µg/m3 1 µg/m3 28.98 µg/m3 16.74 µg/m3 6.09 µg/m3 0.39 mg/m3 12.31 °C 80.08 % 1,023.51 mbar 1.19 m/s 218.38 Deg 16.75 µg/m3 1.6 µg/m3
2023-02-02 19:00 34.47 µg/m3 0.81 µg/m3 30 µg/m3 19.55 µg/m3 7.17 µg/m3 0.36 mg/m3 13.21 °C 80.28 % 1,023.13 mbar 0.69 m/s 286.46 Deg 10.89 µg/m3 3.62 µg/m3
2023-02-02 18:00 22.58 µg/m3 0.7 µg/m3 39.85 µg/m3 17.75 µg/m3 5.99 µg/m3 0.31 mg/m3 13.52 °C 77.91 % 1,022.67 mbar 1.25 m/s 276.72 Deg 5.11 µg/m3 1.1 µg/m3
2023-02-02 17:00 19.66 µg/m3 0.59 µg/m3 46.36 µg/m3 16.33 µg/m3 5.93 µg/m3 0.29 mg/m3 14.05 °C 75.8 % 1,022.19 mbar 1.61 m/s 281.63 Deg 7.1 µg/m3 1.24 µg/m3
2023-02-02 16:00 17.7 µg/m3 0.6 µg/m3 50.42 µg/m3 10.5 µg/m3 5.05 µg/m3 0.3 mg/m3 13.77 °C 79.13 % 1,022.06 mbar 1.73 m/s 321.46 Deg 7.06 µg/m3 0.87 µg/m3
2023-02-02 15:00 17.71 µg/m3 0.45 µg/m3 46.08 µg/m3 8.22 µg/m3 4.71 µg/m3 0.28 mg/m3 12.76 °C 90.85 % 1,022.18 mbar 1.98 m/s 279.34 Deg 8.25 µg/m3 0.94 µg/m3
2023-02-02 14:00 15.9 µg/m3 0.36 µg/m3 49.99 µg/m3 17.22 µg/m3 6.2 µg/m3 0.28 mg/m3 12.92 °C 88.26 % 1,022.52 mbar 3.61 m/s 254.4 Deg 7.87 µg/m3 0.97 µg/m3
2023-02-02 13:00 19.14 µg/m3 0.54 µg/m3 46.62 µg/m3 10.93 µg/m3 5.41 µg/m3 0.28 mg/m3 13.99 °C 78.79 % 1,023.07 mbar 2.47 m/s 254.56 Deg 7.97 µg/m3 1.05 µg/m3
2023-02-02 12:00 12.75 µg/m3 0.52 µg/m3 54.2 µg/m3 8.33 µg/m3 4.75 µg/m3 0.29 mg/m3 13.68 °C 79.92 % 1,023.84 mbar 2.77 m/s 293.26 Deg 5.54 µg/m3 1.1 µg/m3
2023-02-02 11:00 15.24 µg/m3 0.73 µg/m3 50.98 µg/m3 8.43 µg/m3 4.72 µg/m3 0.29 mg/m3 13.61 °C 80.79 % 1,023.86 mbar 2.82 m/s 310.9 Deg 6.77 µg/m3 0.94 µg/m3
2023-02-02 10:00 21.7 µg/m3 0.58 µg/m3 47.71 µg/m3 10.91 µg/m3 5.4 µg/m3 0.3 mg/m3 12.66 °C 85.81 % 1,023.51 mbar 2.28 m/s 295.96 Deg 9.04 µg/m3 1.36 µg/m3
2023-02-02 09:00 27.36 µg/m3 0.69 µg/m3 42.31 µg/m3 13.2 µg/m3 6.1 µg/m3 0.28 mg/m3 13.69 °C 79.32 % 1,022.96 mbar 1.89 m/s 262.09 Deg 9.67 µg/m3 1.36 µg/m3
2023-02-02 08:00 22.48 µg/m3 0.59 µg/m3 48.21 µg/m3 8.27 µg/m3 4.21 µg/m3 0.27 mg/m3 13.89 °C 72.1 % 1,022.63 mbar 3.1 m/s 269.33 Deg 7.68 µg/m3 1.34 µg/m3
2023-02-02 07:00 19.28 µg/m3 0.51 µg/m3 52.43 µg/m3 7.21 µg/m3 4.13 µg/m3 0.26 mg/m3 13.7 °C 74.69 % 1,022.37 mbar 2.96 m/s 275.68 Deg 6.67 µg/m3 1.12 µg/m3
2023-02-02 06:00 10.41 µg/m3 0.52 µg/m3 55.99 µg/m3 7.13 µg/m3 4.13 µg/m3 0.26 mg/m3 13.52 °C 76 % 1,022.18 mbar 3.34 m/s 260.73 Deg 2.18 µg/m3 0.79 µg/m3
2023-02-02 05:00 10.12 µg/m3 0.43 µg/m3 59.81 µg/m3 6.78 µg/m3 3.69 µg/m3 0.26 mg/m3 13.02 °C 75.73 % 1,022.18 mbar 2.58 m/s 249.95 Deg 2.7 µg/m3 0.79 µg/m3
2023-02-02 04:00 7.95 µg/m3 0.41 µg/m3 59.71 µg/m3 6.94 µg/m3 4.07 µg/m3 0.27 mg/m3 12.81 °C 75.58 % 1,022.54 mbar 1.68 m/s 227.69 Deg 0.25 µg/m3 0.79 µg/m3
2023-02-02 03:00 22.67 µg/m3 0.38 µg/m3 61.63 µg/m3 7.54 µg/m3 4.41 µg/m3 0.2 mg/m3 12.85 °C 73.17 % 1,023.20 mbar 1.58 m/s 228.18 Deg 0.43 µg/m3 0.73 µg/m3
2023-02-02 02:00 7.95 µg/m3 0.59 µg/m3 60.23 µg/m3 8.36 µg/m3 4.55 µg/m3 0.33 mg/m3 12.62 °C 73.23 % 1,023.63 mbar 1.36 m/s 224.79 Deg 1.15 µg/m3 1.02 µg/m3
2023-02-02 01:00 8.95 µg/m3 0.48 µg/m3 51.06 µg/m3 7.76 µg/m3 4.37 µg/m3 0.38 mg/m3 11.17 °C 75.15 % 1,024.02 mbar 1.12 m/s 228.55 Deg 1.42 µg/m3 1.03 µg/m3
2023-02-02 00:00 20.51 µg/m3 0.77 µg/m3 51.41 µg/m3 7.19 µg/m3 4.11 µg/m3 0.41 mg/m3 11.72 °C 69.02 % 1,024.46 mbar 1.1 m/s 206.75 Deg 8.11 µg/m3 0.91 µg/m3
2023-02-01 23:00 19.29 µg/m3 0.62 µg/m3 53.79 µg/m3 7.35 µg/m3 4.17 µg/m3 0.43 mg/m3 11.74 °C 68.32 % 1,024.45 mbar 1.29 m/s 215.68 Deg 5.32 µg/m3 1.23 µg/m3

It is to be noted that the data is provisional and subject to quality assurance procedures. For validated data kindly refer your request to contact.air@era.org.mt